When you browse on this site, cookies collect data to enhance your experience and personalize the content and advertising you see.
Visit our Privacy Policy to learn more. By continuing to use the site, you agree to this use of cookies and data.
  • în România
  • Lista ţărilor
  • Pe 7 zile
  • Temperatura apei
  • Meteo pe hartă
  • Widget-uri
  • user-avatar
    Intrare

    Meteo pe oră la Swansea

    Astăzi, 30 Mai, Sâmbătă

    Timp Temperatura Precipitaţii Vânt Presiune Umiditate
    00:00 +12°C° 0 mm 3 m/s 766 mmHg 86%
    01:00 +12°C° 0 mm 3 m/s 766 mmHg 84%
    02:00 +11°C° 0 mm 4 m/s 766 mmHg 83%
    03:00 +10°C° 0 mm 4 m/s 766 mmHg 81%
    04:00 +11°C° 0 mm 4 m/s 766 mmHg 77%
    05:00 +11°C° 0 mm 4 m/s 766 mmHg 73%
    06:00 +11°C° 0 mm 4 m/s 766 mmHg 70%
    07:00 +13°C° 0 mm 4 m/s 766 mmHg 65%
    08:00 +15°C° 0 mm 5 m/s 766 mmHg 61%
    09:00 +16°C° 0 mm 5 m/s 765 mmHg 56%
    10:00 +17°C° 0 mm 5 m/s 765 mmHg 57%
    11:00 +20°C° 0 mm 5 m/s 765 mmHg 58%
    12:00 +21°C° 0 mm 5 m/s 765 mmHg 59%
    13:00 +21°C° 0 mm 5 m/s 765 mmHg 60%
    14:00 +21°C° 0 mm 4 m/s 765 mmHg 61%
    15:00 +22°C° 0 mm 4 m/s 764 mmHg 61%
    16:00 +22°C° 0 mm 3 m/s 764 mmHg 65%
    17:00 +21°C° 0 mm 3 m/s 764 mmHg 69%
    18:00 +21°C° 0 mm 3 m/s 764 mmHg 73%
    19:00 +19°C° 0 mm 3 m/s 764 mmHg 77%
    20:00 +18°C° 0 mm 3 m/s 764 mmHg 80%
    21:00 +16°C° 0 mm 3 m/s 764 mmHg 84%
    22:00 +14°C° 0 mm 4 m/s 764 mmHg 85%
    23:00 +13°C° 0 mm 4 m/s 765 mmHg 86%

    Mâine, 31 Mai, Duminică

    Timp Temperatura Precipitaţii Vânt Presiune Umiditate
    00:00 +13°C° 0 mm 4 m/s 765 mmHg 87%
    01:00 +12°C° 0 mm 4 m/s 765 mmHg 86%
    02:00 +11°C° 0 mm 4 m/s 765 mmHg 86%
    03:00 +11°C° 0 mm 4 m/s 764 mmHg 86%
    04:00 +11°C° 0 mm 4 m/s 765 mmHg 85%
    05:00 +12°C° 0 mm 4 m/s 765 mmHg 84%
    06:00 +13°C° 0 mm 5 m/s 765 mmHg 84%
    07:00 +14°C° 0 mm 5 m/s 765 mmHg 78%
    08:00 +16°C° 0 mm 5 m/s 765 mmHg 73%
    09:00 +19°C° 0 mm 6 m/s 765 mmHg 68%
    10:00 +20°C° 0 mm 6 m/s 765 mmHg 65%
    11:00 +20°C° 0 mm 6 m/s 765 mmHg 63%
    12:00 +21°C° 0 mm 6 m/s 765 mmHg 60%
    13:00 +21°C° 0 mm 5 m/s 765 mmHg 60%
    14:00 +21°C° 0 mm 5 m/s 765 mmHg 60%
    15:00 +22°C° 0 mm 5 m/s 765 mmHg 60%
    16:00 +21°C° 0 mm 4 m/s 765 mmHg 64%
    17:00 +21°C° 0 mm 4 m/s 765 mmHg 68%
    18:00 +20°C° 0 mm 3 m/s 765 mmHg 72%
    19:00 +19°C° 0 mm 4 m/s 765 mmHg 75%
    20:00 +16°C° 0 mm 5 m/s 766 mmHg 78%
    21:00 +15°C° 0 mm 6 m/s 766 mmHg 82%
    22:00 +14°C° 0 mm 5 m/s 766 mmHg 82%
    23:00 +13°C° 0 mm 5 m/s 766 mmHg 83%

    Poimâine, 1 Iunie, Luni

    Timp Temperatura Precipitaţii Vânt Presiune Umiditate
    00:00 +12°C° 0 mm 5 m/s 766 mmHg 84%
    01:00 +10°C° 0 mm 5 m/s 766 mmHg 85%
    02:00 +10°C° 0 mm 5 m/s 766 mmHg 85%
    03:00 +9°C° 0 mm 5 m/s 766 mmHg 86%
    04:00 +10°C° 0 mm 5 m/s 766 mmHg 84%
    05:00 +10°C° 0 mm 5 m/s 766 mmHg 82%
    06:00 +12°C° 0 mm 5 m/s 766 mmHg 80%
    07:00 +13°C° 0 mm 5 m/s 766 mmHg 77%
    08:00 +15°C° 0 mm 5 m/s 766 mmHg 73%
    09:00 +17°C° 0 mm 5 m/s 766 mmHg 69%
    10:00 +19°C° 0 mm 5 m/s 766 mmHg 68%
    11:00 +20°C° 0 mm 5 m/s 766 mmHg 66%
    12:00 +21°C° 0 mm 5 m/s 766 mmHg 65%
    13:00 +21°C° 0 mm 4 m/s 766 mmHg 65%
    14:00 +21°C° 0 mm 4 m/s 766 mmHg 66%
    15:00 +21°C° 0 mm 3 m/s 766 mmHg 66%
    16:00 +21°C° 0 mm 3 m/s 766 mmHg 69%
    17:00 +21°C° 0 mm 3 m/s 765 mmHg 72%
    18:00 +20°C° 0 mm 3 m/s 765 mmHg 75%
    19:00 +19°C° 0 mm 3 m/s 766 mmHg 79%
    20:00 +17°C° 0 mm 4 m/s 766 mmHg 84%
    21:00 +14°C° 0 mm 4 m/s 766 mmHg 88%
    22:00 +13°C° 0 mm 4 m/s 766 mmHg 89%
    23:00 +12°C° 0 mm 4 m/s 766 mmHg 90%

    2 Iunie, Marţi

    Timp Temperatura Precipitaţii Vânt Presiune Umiditate
    00:00 +11°C° 0 mm 4 m/s 766 mmHg 91%
    01:00 +10°C° 0 mm 3 m/s 766 mmHg 92%
    02:00 +10°C° 0 mm 3 m/s 766 mmHg 92%
    03:00 +9°C° 0 mm 3 m/s 765 mmHg 92%
    04:00 +10°C° 0 mm 3 m/s 765 mmHg 90%
    05:00 +10°C° 0 mm 2 m/s 765 mmHg 88%
    06:00 +12°C° 0 mm 2 m/s 765 mmHg 86%
    07:00 +14°C° 0 mm 2 m/s 765 mmHg 78%
    08:00 +15°C° 0 mm 2 m/s 765 mmHg 70%
    09:00 +17°C° 0 mm 2 m/s 765 mmHg 62%
    10:00 +19°C° 0 mm 1 m/s 764 mmHg 59%
    11:00 +21°C° 0 mm 1 m/s 764 mmHg 56%
    12:00 +22°C° 0 mm 1 m/s 764 mmHg 53%
    13:00 +21°C° 0 mm 2 m/s 763 mmHg 55%
    14:00 +21°C° 0 mm 2 m/s 763 mmHg 56%
    15:00 +21°C° 0 mm 3 m/s 762 mmHg 58%
    16:00 +20°C° 0 mm 3 m/s 762 mmHg 62%
    17:00 +19°C° 0 mm 3 m/s 761 mmHg 67%
    18:00 +18°C° 0 mm 3 m/s 761 mmHg 71%
    19:00 +17°C° 0 mm 3 m/s 761 mmHg 73%
    20:00 +16°C° 0 mm 3 m/s 761 mmHg 76%
    21:00 +13°C° 0 mm 3 m/s 761 mmHg 79%
    22:00 +13°C° 0 mm 3 m/s 760 mmHg 81%
    23:00 +12°C° 0 mm 3 m/s 760 mmHg 82%

    3 Iunie, Miercuri

    Timp Temperatura Precipitaţii Vânt Presiune Umiditate
    00:00 +12°C° 0 mm 3 m/s 759 mmHg 84%
    01:00 +12°C° 0 mm 3 m/s 759 mmHg 84%
    02:00 +12°C° 0 mm 3 m/s 759 mmHg 84%
    03:00 +12°C° 0 mm 3 m/s 758 mmHg 84%
    04:00 +12°C° 0.1 mm 4 m/s 758 mmHg 86%
    05:00 +12°C° 0.1 mm 4 m/s 757 mmHg 88%
    06:00 +12°C° 0.1 mm 5 m/s 757 mmHg 90%
    07:00 +12°C° 0.2 mm 4 m/s 757 mmHg 91%
    08:00 +12°C° 0.2 mm 4 m/s 757 mmHg 91%
    09:00 +12°C° 0.2 mm 4 m/s 757 mmHg 91%
    10:00 +12°C° 1.1 mm 5 m/s 757 mmHg 91%
    11:00 +11°C° 1.1 mm 6 m/s 757 mmHg 91%
    12:00 +11°C° 1.1 mm 6 m/s 757 mmHg 91%
    13:00 +11°C° 0.7 mm 7 m/s 756 mmHg 91%
    14:00 +11°C° 0.7 mm 7 m/s 756 mmHg 90%
    15:00 +11°C° 0.7 mm 8 m/s 756 mmHg 89%
    16:00 +10°C° 0.4 mm 8 m/s 756 mmHg 89%
    17:00 +10°C° 0.4 mm 8 m/s 756 mmHg 90%
    18:00 +10°C° 0.4 mm 8 m/s 756 mmHg 90%
    19:00 +9°C° 0.1 mm 7 m/s 756 mmHg 90%
    20:00 +9°C° 0.1 mm 7 m/s 756 mmHg 89%
    21:00 +9°C° 0.1 mm 7 m/s 757 mmHg 89%
    22:00 +8°C° 0 mm 6 m/s 757 mmHg 89%
    23:00 +8°C° 0 mm 6 m/s 756 mmHg 89%

    4 Iunie, Joi

    Timp Temperatura Precipitaţii Vânt Presiune Umiditate
    00:00 +7°C° 0 mm 6 m/s 756 mmHg 89%
    01:00 +6°C° 0 mm 5 m/s 756 mmHg 90%
    02:00 +6°C° 0 mm 5 m/s 755 mmHg 90%
    03:00 +6°C° 0 mm 5 m/s 755 mmHg 90%
    04:00 +6°C° 0 mm 5 m/s 755 mmHg 88%
    05:00 +7°C° 0 mm 5 m/s 754 mmHg 86%
    06:00 +7°C° 0 mm 5 m/s 754 mmHg 84%
    07:00 +9°C° 0 mm 5 m/s 754 mmHg 80%
    08:00 +10°C° 0 mm 6 m/s 754 mmHg 75%
    09:00 +11°C° 0 mm 6 m/s 753 mmHg 70%
    10:00 +13°C° 0 mm 6 m/s 753 mmHg 70%
    11:00 +13°C° 0 mm 5 m/s 753 mmHg 70%
    12:00 +14°C° 0 mm 5 m/s 753 mmHg 70%
    13:00 +14°C° 0 mm 5 m/s 752 mmHg 71%
    14:00 +14°C° 0 mm 5 m/s 752 mmHg 71%
    15:00 +14°C° 0 mm 4 m/s 752 mmHg 72%
    16:00 +14°C° 0 mm 4 m/s 751 mmHg 74%
    17:00 +14°C° 0 mm 4 m/s 751 mmHg 76%
    18:00 +13°C° 0 mm 4 m/s 751 mmHg 78%
    19:00 +12°C° 0 mm 4 m/s 750 mmHg 82%
    20:00 +11°C° 0 mm 4 m/s 750 mmHg 85%
    21:00 +10°C° 0 mm 3 m/s 750 mmHg 88%
    22:00 +9°C° 0 mm 3 m/s 749 mmHg 88%
    23:00 +8°C° 0 mm 3 m/s 749 mmHg 89%
    Arată mai mult